[[[{"header":{"parameterUnit":"kt","parameterCategory":2,"dx":1,"dy":1,"la1":30.253999710083008,"la2":30.299108505249023,"lo1":-89.0895004272461,"lo2":-89.04439544677734,"nx":28,"ny":28,"refTime":"2022-10-30T21:00:00:Z","depth":0,"parameterNumber":1,"parameterNumberName":"U-component_of_WINDS"},"data":[1.7511,1.7534,1.7561,1.76,1.7631,1.7663,1.7684,1.7713,1.7744,1.7786,1.7816,1.7847,1.789,1.7933,1.7968,1.7981,1.7994,1.7983,1.8001,1.8026,1.8031,1.8037,1.8033,1.7985,1.7985,1.797,1.797,1.797,1.7528,1.7559,1.7587,1.7633,1.7658,1.7685,1.7725,1.7744,1.7772,1.781,1.7841,1.7881,1.7917,1.7965,1.8005,1.8018,1.8034,1.8027,1.8027,1.8034,1.8062,1.8057,1.8014,1.8014,1.8014,1.8014,1.8014,1.8014,1.7567,1.758,1.7623,1.7654,1.7685,1.7716,1.7733,1.777,1.7799,1.7842,1.787,1.7903,1.7947,1.8009,1.8037,1.8065,1.8079,1.808,1.8081,1.808,1.8076,1.8094,1.8074,1.8074,1.8074,1.8074,1.8074,0,1.7604,1.7625,1.7654,1.7691,1.7716,1.7747,1.7781,1.7793,1.7849,1.7871,1.7906,1.793,1.798,1.8016,1.806,1.809,1.8122,1.8128,1.8129,1.8116,1.8099,1.8109,1.8154,1.8129,1.8129,1.813,1.813,1.813,1.7645,1.7656,1.7715,1.7732,1.7757,1.7783,1.7805,1.7854,1.7875,1.7925,1.7934,1.7971,1.8003,1.8055,1.81,1.8138,1.8154,1.8141,1.816,1.8147,1.8155,1.8154,1.8156,1.8136,1.8136,1.8135,1.8134,0,1.7666,1.771,1.7737,1.7794,1.7809,1.7818,1.7868,1.7883,1.7918,1.7944,1.7953,1.8008,1.8042,1.8089,1.8137,1.8161,1.8181,1.8196,1.8166,1.8172,1.8166,1.8166,1.8136,1.8135,1.8185,1.8184,1.8184,0,1.7719,1.7732,1.7798,1.781,1.7827,1.7876,1.7891,1.7922,1.7961,1.7982,1.8025,1.8044,1.8102,1.8128,1.8164,1.8188,1.8197,1.8217,1.8226,1.8213,1.8211,1.8226,1.8229,1.8246,1.8246,1.8246,1.8246,0,1.7748,1.7798,1.7819,1.7838,1.79,1.7909,1.7936,1.7979,1.8,1.8035,1.805,1.8087,1.8108,1.8137,1.8182,1.8193,1.8213,1.8238,1.8234,1.8233,1.8236,1.8235,1.8197,1.8247,1.8247,1.8247,1.8247,0,1.7798,1.783,1.7854,1.7908,1.7919,1.7933,1.7973,1.7996,1.8038,1.8061,1.8089,1.8124,1.8148,1.8169,1.8204,1.8206,1.8225,1.8246,1.8247,1.8252,1.8274,1.8247,1.8205,1.8203,1.8257,1.8257,1.8257,0,1.7819,1.7854,1.7896,1.7918,1.7941,1.7988,1.8005,1.8041,1.8072,1.8098,1.8133,1.8162,1.8187,1.8203,1.8214,1.8253,1.825,1.8254,1.8293,1.8293,1.828,1.8242,1.8224,1.8209,1.8259,1.8259,1.8259,0,1.7841,1.7916,1.7916,1.794,1.7994,1.8014,1.8033,1.8071,1.8086,1.8121,1.8139,1.818,1.8202,1.8227,1.8259,1.8268,1.8254,1.829,1.8292,1.8283,1.8263,1.8246,1.8243,1.8274,1.8273,1.8273,1.826,0,1.7908,1.7931,1.7935,1.7984,1.8006,1.8022,1.8071,1.8088,1.8117,1.815,1.8177,1.8219,1.8259,1.8268,1.8296,1.8302,1.8308,1.8331,1.8355,1.8329,1.8326,1.8325,1.8355,1.8356,1.8357,1.8358,0,0,1.7918,1.7951,1.7996,1.8016,1.8037,1.8086,1.8098,1.8125,1.8178,1.8193,1.8206,1.827,1.8304,1.8332,1.8328,1.8344,1.835,1.8357,1.8341,1.8339,1.8337,1.8333,1.833,1.836,1.836,1.836,1.836,0,1.7952,1.7983,1.7994,1.8023,1.8069,1.8103,1.8105,1.8159,1.8181,1.8207,1.8247,1.827,1.8319,1.835,1.8372,1.8354,1.8384,1.8363,1.8337,1.8348,1.8344,1.8342,1.8336,1.8334,1.8362,1.8362,1.8362,0,1.7983,1.8021,1.8032,1.8082,1.8112,1.8134,1.8171,1.8193,1.8211,1.8263,1.8289,1.8319,1.8364,1.8384,1.8394,1.8408,1.8412,1.8419,1.8415,1.8418,1.8431,1.8427,1.8423,1.847,1.847,1.8471,0,0,1.8006,1.8027,1.8084,1.8093,1.8109,1.8159,1.8176,1.8206,1.8244,1.8259,1.8298,1.8335,1.8365,1.8383,1.8413,1.8428,1.8442,1.843,1.8425,1.8421,1.8421,1.8433,1.8429,1.8471,1.8471,1.8471,0,0,1.8018,1.8083,1.8105,1.812,1.8155,1.8212,1.8216,1.8244,1.8276,1.828,1.8332,1.8345,1.8364,1.8392,1.8395,1.8423,1.8446,1.8446,1.8404,1.8398,1.8393,1.8386,1.8439,0,0,0,0,0,1.8077,1.8075,1.8094,1.8104,1.8167,1.8202,1.821,1.8253,1.8268,1.8271,1.8308,1.8338,1.8405,1.8408,1.8418,1.8414,1.8479,1.8478,1.8476,1.8425,1.8419,1.8413,0,0,0,0,0,0,1.8082,1.8093,1.8094,1.815,1.8165,1.8202,1.8238,1.8249,1.8269,1.8275,1.833,1.834,1.8378,1.8406,1.8414,1.841,1.8437,1.8479,1.8478,1.8476,1.8423,1.8418,1.8413,0,0,0,0,0,1.8085,1.8095,1.8185,1.8151,1.8164,1.822,1.8238,1.8248,1.8264,1.8322,1.8333,1.8295,1.8377,1.8387,1.8411,1.8405,1.8432,1.8434,1.8478,1.8477,1.8476,1.8421,0,0,0,0,0,0,1.8088,1.8105,1.8189,1.8194,1.8154,1.8219,1.823,1.8247,1.8312,1.8322,1.8289,1.8292,1.8376,1.8384,1.8391,1.8401,1.8427,1.843,1.8432,1.8477,1.8476,1.8476,0,0,0,0,0,0,1.81,1.8109,1.8192,1.8194,1.82,1.8217,1.8228,1.8255,1.8312,1.8275,1.828,1.829,1.8365,1.8381,1.8387,1.8428,1.8424,1.8427,1.8429,1.843,1.8477,1.8476,0,0,0,0,0,0,1.8104,1.8112,1.8193,1.8197,1.8203,1.8269,1.8243,1.8306,1.8312,1.8272,1.8314,1.8315,1.8362,1.8369,1.8385,1.8423,1.8427,1.8424,1.8426,1.8427,1.8428,0,0,0,0,0,0,0,1.8108,1.8045,1.8155,1.82,1.8205,1.8246,1.8247,1.8249,1.8312,1.8313,1.8314,1.8314,1.8408,1.8411,1.8414,1.8418,0,0,1.8424,1.8425,0,0,0,0,0,0,0,0,1.8043,1.8044,1.8156,1.8157,1.8158,1.8246,1.8247,1.8248,1.8312,1.8313,1.8314,1.8314,1.8409,1.8411,1.8414,0,0,0,0,0,0,0,0,0,0,0,0,0,0,0,1.8156,1.8157,0,1.8246,1.8247,1.8248,1.8312,1.8313,1.8313,1.8314,1.841,1.8412,1.8414,0,0,0,0,0,0,0,0,0,0,0,0,0,0,0,0,0,0,0,0,0,0,0,0,0,0,0,0,0,0,0,0,0,0,0,0,0,0,0,0,0,0,0,0,0,0,0,0,0,0,0,0,0,0,0,0,0,0,0,0,0,0,0,0,0,0,0,0,0]}],[{"header":{"parameterUnit":"kt","parameterCategory":2,"dx":1,"dy":1,"la1":30.253999710083008,"la2":30.299108505249023,"lo1":-89.0895004272461,"lo2":-89.04439544677734,"nx":28,"ny":28,"refTime":"2022-10-30T21:00:00:Z","depth":0,"parameterNumber":2,"parameterNumberName":"V-component_of_WINDS"},"data":[1.725,1.7205,1.7195,1.7138,1.7119,1.7077,1.7058,1.7033,1.701,1.6957,1.6924,1.6908,1.6879,1.6836,1.6798,1.6791,1.6775,1.6764,1.6757,1.6816,1.6823,1.683,1.684,1.6762,1.6762,1.6697,1.6697,1.6696,1.7285,1.7266,1.7235,1.7197,1.7168,1.7171,1.7141,1.7116,1.7078,1.7051,1.7019,1.6972,1.6932,1.6908,1.6867,1.6843,1.6841,1.6832,1.6832,1.6827,1.689,1.69,1.6834,1.6834,1.6834,1.6834,1.6834,1.6834,1.7345,1.732,1.7292,1.7258,1.7236,1.7211,1.7184,1.7167,1.7135,1.7095,1.709,1.7047,1.7017,1.6966,1.6946,1.691,1.6918,1.6905,1.6901,1.6897,1.6892,1.6977,1.6904,1.6904,1.6904,1.6904,1.6904,0,1.7386,1.7379,1.735,1.7317,1.7292,1.7265,1.724,1.7223,1.7207,1.7182,1.7143,1.712,1.7072,1.7033,1.6995,1.6978,1.6977,1.6978,1.6967,1.6967,1.6969,1.6962,1.7061,1.698,1.698,1.6981,1.6981,1.6981,1.7442,1.7416,1.7385,1.7365,1.735,1.7319,1.7298,1.7287,1.7265,1.7231,1.7209,1.7172,1.7141,1.7081,1.7061,1.7025,1.7024,1.6993,1.7019,1.7018,1.7018,1.7018,1.7013,1.6988,1.6987,1.6986,1.6986,0,1.7474,1.7462,1.7418,1.7391,1.7383,1.7355,1.733,1.7305,1.7293,1.7255,1.7246,1.7226,1.7189,1.7175,1.7131,1.7124,1.707,1.7072,1.7078,1.7076,1.7044,1.7045,1.695,1.6935,1.702,1.702,1.7019,0,1.7516,1.7483,1.7466,1.7442,1.7403,1.7394,1.7355,1.7342,1.7319,1.729,1.729,1.7262,1.725,1.7219,1.7209,1.7164,1.7157,1.7148,1.7145,1.7146,1.7146,1.7132,1.7134,1.7146,1.7147,1.7147,1.7148,0,1.7566,1.752,1.7481,1.7469,1.7438,1.7419,1.7405,1.7381,1.7362,1.7335,1.7321,1.729,1.7272,1.7247,1.7235,1.7252,1.7181,1.7203,1.7171,1.7171,1.7155,1.7155,1.7076,1.7148,1.7148,1.7149,1.7149,0,1.7598,1.7574,1.7521,1.7494,1.7483,1.7458,1.7427,1.7403,1.7378,1.7371,1.735,1.7349,1.7312,1.7333,1.7281,1.7306,1.7287,1.7277,1.7274,1.7268,1.7291,1.7244,1.7174,1.7164,1.7263,1.7264,1.7265,0,1.7655,1.7601,1.7595,1.7545,1.7518,1.7519,1.7491,1.7471,1.746,1.7434,1.7422,1.7393,1.7406,1.7395,1.7372,1.7357,1.7324,1.7362,1.7317,1.7316,1.732,1.7256,1.7247,1.7191,1.7277,1.7276,1.7275,0,1.7699,1.7665,1.7657,1.7642,1.7617,1.7595,1.7564,1.7535,1.7517,1.7496,1.7467,1.7429,1.7436,1.7419,1.7416,1.7392,1.7346,1.7403,1.7403,1.739,1.7285,1.7275,1.7266,1.7348,1.7347,1.7346,1.7285,0,1.7743,1.7717,1.7696,1.7667,1.765,1.762,1.761,1.7592,1.759,1.7581,1.7541,1.7524,1.7494,1.7483,1.7483,1.7433,1.7439,1.7449,1.7467,1.7427,1.7406,1.7398,1.7498,1.7499,1.7499,1.7499,0,0,1.7799,1.7762,1.7759,1.773,1.7715,1.7719,1.7688,1.7674,1.7646,1.7633,1.7644,1.7588,1.7574,1.7526,1.7513,1.7503,1.7491,1.7508,1.7447,1.7441,1.7436,1.7414,1.7406,1.75,1.75,1.75,1.7501,0,1.7813,1.7802,1.7774,1.7759,1.7737,1.773,1.7723,1.7703,1.7695,1.766,1.7662,1.7638,1.7596,1.7579,1.7564,1.7514,1.7516,1.7506,1.748,1.7452,1.7445,1.744,1.7417,1.7409,1.7502,1.7502,1.7502,0,1.7851,1.7838,1.7824,1.7793,1.778,1.7754,1.7771,1.7745,1.7725,1.7732,1.7696,1.7685,1.7663,1.7623,1.7604,1.7613,1.7539,1.7563,1.756,1.7557,1.7529,1.7522,1.7515,1.7603,1.7604,1.7604,0,0,1.7865,1.7843,1.7826,1.7796,1.7787,1.7777,1.7763,1.7762,1.7743,1.7736,1.7723,1.7704,1.7678,1.7662,1.7639,1.7596,1.7589,1.7576,1.7571,1.7567,1.7562,1.7533,1.7526,1.7605,1.7605,1.7605,0,0,1.7871,1.7851,1.7854,1.7819,1.7802,1.7783,1.7764,1.7767,1.7746,1.7748,1.7743,1.7738,1.7701,1.7691,1.7711,1.7644,1.7663,1.7658,1.7652,1.7646,1.7641,1.7643,1.7726,0,0,0,0,0,1.7882,1.7854,1.7857,1.785,1.7812,1.7781,1.7776,1.7773,1.7785,1.7769,1.7759,1.7765,1.77,1.7718,1.771,1.7687,1.7624,1.7621,1.7618,1.76,1.7593,1.7588,0,0,0,0,0,0,1.7879,1.7871,1.7857,1.7838,1.783,1.7783,1.7802,1.78,1.7786,1.7788,1.7767,1.7764,1.776,1.7722,1.7715,1.7693,1.7728,1.7623,1.762,1.7618,1.7597,1.7592,1.7588,0,0,0,0,0,1.7877,1.787,1.7812,1.7838,1.7831,1.7819,1.7803,1.7802,1.7791,1.7776,1.7773,1.7789,1.776,1.7754,1.7718,1.7696,1.7733,1.7731,1.7621,1.7619,1.7617,1.7595,0,0,0,0,0,0,1.7875,1.7868,1.7811,1.7808,1.785,1.7821,1.7817,1.7803,1.778,1.7777,1.7798,1.78,1.7759,1.7754,1.775,1.7697,1.7737,1.7734,1.7733,1.7619,1.7618,1.7616,0,0,0,0,0,0,1.7872,1.7866,1.7809,1.7824,1.7823,1.7824,1.782,1.779,1.7779,1.7803,1.7804,1.7799,1.7766,1.7755,1.7751,1.7704,1.774,1.7737,1.7736,1.7735,1.7618,1.7617,0,0,0,0,0,0,1.7869,1.7864,1.7825,1.7824,1.7823,1.7795,1.7797,1.7759,1.7792,1.7804,1.7795,1.7797,1.7766,1.7762,1.7752,1.7707,1.7705,1.774,1.7738,1.7737,1.7736,0,0,0,0,0,0,0,1.7867,1.7902,1.7825,1.7824,1.7823,1.7785,1.7785,1.7784,1.7793,1.7794,1.7795,1.7796,1.7754,1.7751,1.7748,1.7709,0,0,1.774,1.7739,0,0,0,0,0,0,0,0,1.7904,1.7902,1.7825,1.7825,1.7824,1.7785,1.7785,1.7784,1.7793,1.7794,1.7795,1.7796,1.7753,1.7751,1.7749,0,0,0,0,0,0,0,0,0,0,0,0,0,0,0,1.7825,1.7825,0,1.7785,1.7785,1.7784,1.7793,1.7794,1.7795,1.7795,1.7753,1.7751,1.7749,0,0,0,0,0,0,0,0,0,0,0,0,0,0,0,0,0,0,0,0,0,0,0,0,0,0,0,0,0,0,0,0,0,0,0,0,0,0,0,0,0,0,0,0,0,0,0,0,0,0,0,0,0,0,0,0,0,0,0,0,0,0,0,0,0,0,0,0,0]}]]]